Date,TemperatureHighF,TemperatureAvgF,TemperatureLowF,DewpointHighF,DewpointAvgF,DewpointLowF,HumidityHigh,HumidityAvg,HumidityLow,PressureMaxIn,PressureMinIn,WindSpeedMaxMPH,WindSpeedAvgMPH,GustSpeedMaxMPH,PrecipitationSumIn
2013-2-1,34,29,24,17,11,5,60,48,31,29.83,29.39,15,4,24,0.00
2013-2-2,34,26,18,22,9,3,89,51,28,29.90,29.63,9,3,15,0.00
2013-2-3,33,26,23,25,22,19,97,86,65,29.64,29.37,7,0,11,0.02
2013-2-4,32,27,23,24,12,9,90,54,40,29.58,29.40,12,4,24,0.33
2013-2-5,34,32,26,33,30,23,97,93,87,29.55,29.46,4,0,8,0.01
2013-2-6,42,35,30,32,25,7,99,69,37,29.95,29.48,11,2,21,0.01
2013-2-7,40,32,25,36,18,6,85,57,36,30.09,29.88,6,0,11,0.00
2013-2-8,42,37,29,41,36,28,99,96,85,29.88,29.17,14,5,26,1.36
2013-2-9,36,29,22,30,19,7,99,70,33,29.91,29.30,15,5,27,0.01
2013-2-10,41,24,14,26,14,7,82,66,28,30.08,29.91,8,1,12,0.01
2013-2-11,53,43,32,53,42,26,99,96,80,29.93,29.22,7,1,18,0.31
2013-2-12,48,42,33,43,27,23,99,58,41,29.55,29.31,14,4,23,0.04
2013-2-13,46,36,27,33,28,23,99,72,48,29.54,29.25,4,0,8,0.01
2013-2-14,48,39,32,38,34,28,99,85,52,29.60,29.26,6,0,11,0.12
2013-2-15,59,44,34,42,36,31,97,76,43,29.61,29.49,8,1,12,0.00
2013-2-16,46,38,32,35,29,16,93,71,50,29.52,29.29,8,1,17,0.00
2013-2-17,34,29,19,18,4,-3,55,36,22,29.59,29.23,15,7,30,0.18
2013-2-18,38,27,17,12,3,-2,48,37,22,29.85,29.58,14,5,27,0.00
2013-2-19,51,40,28,46,33,11,99,76,46,29.81,29.25,11,1,21,0.21
2013-2-20,39,32,26,28,12,5,65,45,33,29.58,29.31,17,7,27,0.04
2013-2-21,39,28,24,15,11,9,62,50,34,29.85,29.56,13,5,27,0.00
2013-2-22,40,35,26,36,27,16,88,73,59,29.98,29.84,6,0,11,0.00
2013-2-23,44,41,37,44,40,36,99,97,88,29.85,29.35,10,2,18,0.58
2013-2-24,51,41,34,43,33,21,99,76,46,29.56,29.30,14,4,27,0.02
2013-2-25,49,39,30,30,25,21,75,58,42,29.81,29.56,7,1,12,0.00
2013-2-26,46,38,28,40,33,25,99,81,67,29.86,29.40,17,2,30,0.28
2013-2-27,58,46,40,55,43,37,99,89,62,29.42,29.04,16,4,31,0.71
2013-2-28,53,44,38,41,35,27,89,69,49,29.20,29.11,8,2,15,0.01